Regional Weather Roundup
Issued by NWS Grand Forks, ND

Home | Current Version | Previous Version | Text Only | Print | Product List | Glossary Off
Versions: 1 2 3 4 5 6 7 8 9 10 11 12 13 14 15 16 17 18 19 20 21 22 23 24 25 26 27 28 29 30 31 32 33 34 35 36 37 38 39 40 41 42 43 44 45 46 47 48 49 50

000
ASUS43 KFGF 190210
RWRFGF
PRAIRIE TO PINES  WEATHER ROUNDUP
NATIONAL WEATHER SERVICE EASTERN NORTH DAKOTA/GRAND FORKS ND
900 PM CDT THU SEP 18 2014

 **SATELLITE DATA USED TO AUGMENT SKY COVER AT AUTOMATED STATIONS**
 *****  WEATHER ACROSS EASTERN NORTH DAKOTA  *****

CITY           SKY/WX    TMP DP  RH WIND       PRES   REMARKS
GRAND FORKS    CLOUDY    68  60  75 S13       29.71S
GRAND FRKS AFB CLOUDY    68  63  82 S16       29.71S
GRAND FRKS NWS   N/A     68 N/A N/A S15         N/A
DEVILS LAKE    CLOUDY    68  57  68 S12       29.65R
FARGO          MOCLDY    71  56  58 S15G25    29.77R
WAHPETON ARPT  PTCLDY    66  54  63 SE10      29.82R
$$

 ***** WEATHER ACROSS CENTRAL AND WESTERN NORTH DAKOTA  *****

CITY           SKY/WX    TMP DP  RH WIND       PRES   REMARKS
BISMARCK       CLOUDY    71  63  75 E12       29.65F
MINOT          CLOUDY    75  61  61 S17       29.56F
JAMESTOWN      MOCLDY    68  60  75 S14       29.72F
MINOT AFB      CLOUDY    74  62  68 SW12      29.55F
GARRISON         N/A     71  64  78 S9        29.60F
WILLISTON      CLOUDY    70  53  54 S6        29.59S
DICKINSON      CLOUDY    69  60  73 S13       29.67S
HETTINGER      CLOUDY    71  62  73 SE10      29.71S
$$

 *****  OTHER AIRPORT OBSERVATIONS IN OUR AREA  *****

CITY           SKY/WX    TMP DP  RH WIND       PRES   REMARKS
WALHALLA         N/A     66  61  82 S15G24    29.62F
GRAFTON AIRPOR FAIR      66  59  77 S15       29.68F
VALLEY CITY AR FAIR      68  64  88 S12       29.75S
CANDO          FAIR      66  59  77 S12       29.64S
CAVALIER APRT  FAIR      66  59  77 S16       29.65F
GWINNER        CLEAR     68  59  73 S14       29.80R
ROLLA          FAIR      68  59  73 S16G23    29.62F
 ***** THE ABOVE OBSERVATIONS ARE NON NWS ARE NOT QUALITY
       CONTROLLED AND MAY MIS-REPORT RAIN FOR SNOW...
$$

  *****  WEATHER ACROSS NORTHERN MINNESOTA  *****

CITY           SKY/WX    TMP DP  RH WIND       PRES   REMARKS
FLAG ISLAND    MOCLDY    61  54  77 S28       29.75F
WARROAD        MOCLDY    61  54  77 S13G20    29.77F
ROSEAU         CLOUDY    63  55  77 S13G21    29.75F
HALLOCK        CLOUDY    66  57  72 S16       29.68F
THF RVR FALLS  MOCLDY    64  55  72 SE13      29.77S
BAUDETTE       MOCLDY    58  52  80 S10G20    29.82F
WASKISH        MOCLDY    57  54  88 SE7G17    29.85F
CROOKSTON      MOCLDY    66  57  72 S20       29.75F
STEPHEN NDAWN    N/A     66  59  77 S14         N/A
GREENBUSH NDAW   N/A     66  57  72 S13         N/A
$$
  *****  WEATHER ACROSS CENTRAL AND WEST MINNESOTA  *****

CITY           SKY/WX    TMP DP  RH WIND       PRES   REMARKS
FOSSTON        PTCLDY    63  54  72 SE15G24   29.81F
BEMIDJI        PTCLDY    56  53  87 SE12G17   29.87F
PARK RAPIDS    PTCLDY    60  55  83 SE12      29.89R
ELBOW LAKE     FAIR      64  55  73 SE14      29.86S
WADENA         CLEAR     61  55  82 SE7       29.88F
DETROIT LAKES  PTCLDY    64  55  72 S10       29.86S
MOORHEAD       MOCLDY    70  59  68 S14       29.79S
FERGUS FALLS   CLEAR     66  54  63 SE13      29.85R
MORRIS MN      CLEAR     64  54  68 SE13      29.86F
STAPLES        PTCLDY    61  55  82 SE6       29.90S
$$
  *****  WEATHER ELSEWHERE ACROSS MINNESOTA  *****

CITY           SKY/WX    TMP DP  RH WIND       PRES   REMARKS
DULUTH         CLOUDY    46  43  89 E14       30.03F
INTRNTL FALLS  MOCLDY    54  48  80 S8G18     29.89S
ELY            CLOUDY    45  43  93 S9G16     30.01F
CLOQUET        CLOUDY    46  45  93 E9        30.02F
WHEATON        PTCLDY    64  54  68 SE13      29.85S
BRAINERD       PTCLDY    58  55  90 SE10      29.94S
HIBBING        CLOUDY    49  46  90 SE12      29.99F
ALEXANDRIA     CLEAR     63  52  67 SE14      29.90F
SAINT CLOUD    PTCLDY    63  53  70 SE8       29.95F
MINNEAPOLIS    MOCLDY    63  57  81 SE10      30.00S
$$

  *****  WEATHER ACROSS SOUTH DAKOTA  *****

CITY           SKY/WX    TMP DP  RH WIND       PRES   REMARKS
SIOUX FALLS    MOCLDY    67  56  67 SE15      29.91F
BROOKINGS      NOT AVBL
WATERTOWN      MOCLDY    64  54  69 S13       29.87S
HURON          MOCLDY    67  57  70 SE12      29.82F
SISSETON         N/A     64  58  80 S10       29.82R
ABERDEEN       MOCLDY    69  57  65 S16G24    29.78S
MITCHELL       PTCLDY    68  59  73 SE15G25   29.85S
PIERRE         PTCLDY    72  59  63 SE12      29.72S
MOBRIDGE       MOCLDY    70  61  73 SE12      29.70R
RAPID CITY     CLOUDY    74  53  48 SE6       29.72S
$$

  *****  SOME WEATHER IN NEARBY STATES *****

CITY           SKY/WX    TMP DP  RH WIND       PRES   REMARKS
GLASGOW MT     MOCLDY    67  53  61 SE7       29.59S
GREAT FALLS MT CLEAR     66  47  50 SW12      29.71R
CHEYENNE WY    CLEAR     72  35  25 S8        29.99S
SCOTTSBLUFF NE CLEAR     74  57  55 MISG      29.84R
OMAHA NE       CLEAR     66  56  70 SE12      29.97S
DES MOINES IA  CLEAR     64  54  69 SE8       30.04R
DAVENPORT IA   CLEAR     59  50  72 E7        30.10R
CHICAGO IL     PTCLDY    59  53  80 N6        30.15R
EAU CLAIRE WI  CLEAR     56  51  84 SE7       30.08
LA CROSSE WI   CLEAR     61  55  81 E7        30.08R
$$

  *****  SOME NATIONAL WEATHER *****

CITY           SKY/WX    TMP DP  RH WIND       PRES   REMARKS
LA GUARDIA NY  PTCLDY    70  48  45 NE6       30.06R
RALEIGH NC     CLOUDY    72  60  66 E5        30.04R
ATLANTA GA     MOCLDY    74  66  76 S5        29.99R
NEW ORLEANS LA CLOUDY    80  68  66 CALM      29.91R
OKLAHOMA CITY  PTCLDY    74  67  78 SE8       29.93R
ALBUQUERQUE NM MOCLDY    71  56  58 S13       30.02R
SALT LAKE CITY PTCLDY    84  45  25 SW6       29.76R
LOS ANGELES CA PTCLDY    70  64  81 W13       29.83R
BOISE ID       PTCLDY    79  44  28 W5        29.77S
SEATTLE WA     MOCLDY    65  56  72 SW12      29.91R
$$

*** WEATHER ACROSS MANITOBA...SASKATCHEWAN AND ONTARIO ***
                ***ONTARIO***

CITY           SKY/WX    TMP DP  RH WIND       PRES   REMARKS
GERALDTON      MOCLDY    37  30  75 S6        30.10F
THUNDER BAY    CLOUDY    45  39  81 E7        30.10F
SIOUX LOOKOUT  MOCLDY    50  45  81 S9        29.89F
TORONTO        CLEAR     48  37  66 N14       30.22R
BIG TROUT LK   CLEAR     50  36  57 S17G24    29.79F
PICKLE LAKE    MOCLDY    45  34  65 S10       29.90F
DRYDEN         CLOUDY    50  45  81 S15G22    29.86F
KENORA         PTCLDY    54  48  82 SE16      29.78F
$$
                *** MANITOBA***

CITY           SKY/WX    TMP DP  RH WIND       PRES   REMARKS
BRANDON        CLOUDY    64  59  82 SE8       29.54F
DAUPHIN        CLOUDY    72  59  64 SW12G20   29.45F
ISLAND LAKE    CLOUDY    55  45  67 S12       29.60F
PILOT MOUND    NOT AVBL
THE PAS        NOT AVBL
THOMPSON       LGT RAIN  52  52 100 S6        29.45F
WINNIPEG       MOCLDY    64  57  77 S16       29.62F
LYNN LAKE      CLOUDY    50  46  87 W6        29.46R
CHURCHILL      LGT RAIN  41  39  93 S10G17    29.42F
GILLAM         LGT RAIN  48  46  93 S13G22    29.47F
$$
                ***SASKATCHEWAN***

CITY           SKY/WX    TMP DP  RH WIND       PRES   REMARKS
ESTEVAN        MOCLDY    63  54  72 SW6       29.55R
KINDERSLEY     CLOUDY    64  54  68 N9        29.53R
LLOYDMINSTER   MOCLDY    61  48  63 NW5       29.56R
PRINCE ALBERT  NOT AVBL
REGINA         MOCLDY    68  55  64 W8        29.49S
YORKTON        MOCLDY    64  57  77 S7        29.47S
N. BATTLEFORD  CLOUDY    57  52  82 NW5       29.55R
LA RONGE       NOT AVBL
SASKATOON      PTCLDY    57  52  82 NE8       29.51S
SWIFT CURRENT  CLEAR     64  48  55 SW13      29.53S HAZE
$$
NOTE: THESE ARE AUTOMATED STATIONS WITH LIMITED QUALITY CONTROL
      "FAIR" INDICATES FEW OR NO CLOUDS BELOW 12,000 FEET WITH NO
      SIGNIFICANT WEATHER AND/OR OBSTRUCTIONS TO VISIBILITY.
      SKY/WX - SKY CONDITION AND SIGNIFICANT WEATHER.
      TMP - AIR TEMPERATURE.    DP   - DEWPOINT TEMPERATURE.
      RH  - RELATIVE HUMIDITY.  PRES - PRESSURE.
      HX  - HEAT INDEX.         WCI  - WIND CHILL INDEX.
$


USA.gov is the U.S. government's official web portal to all federal, state and local government web resources and services.